Location: Berkeley
(37.8716°N, 122.2727°W)
Time: 07:12:58
(UTC-07:00)

BlueWalker 3 - Pass Details

Date: 12 May 2026
Orbit: 447 x 457 km, 53.2° (Epoch: 5 June)

Event Time Altitude Azimuth Distance (km) Brightness Sun altitude
Exits shadow 02:16:38 14° 31° (NNE) 1,356 4.9 -31.5°
Drops below altitude 10° 02:17:12 10° 34° (NE) 1,572 5.3 -31.5°
Sets 02:19:26 0° 43° (NE) 2,447 6.4 -31.3°
